Regional Weather Roundup
Issued by NWS Newport/Morehead, NC

Current Version | Previous Version | Graphics & Text | Print | Product List | Glossary On
Versions: 1 2 3 4 5 6 7 8 9 10 11 12 13 14 15 16 17 18 19 20 21 22 23 24 25 26 27 28 29 30 31 32 33 34 35 36 37 38 39 40 41 42 43 44 45 46 47 48 49 50
000 ASUS42 KMHX 020825 RWRMHX WEATHER ROUNDUP FOR EASTERN NORTH CAROLINA NATIONAL WEATHER SERVICE NEWPORT/MOREHEAD CITY NC 400 AM EDT THU JUL 02 2015 NOTE: "FAIR" INDICATES FEW OR NO CLOUDS BELOW 12,000 FEET WITH NO SIGNIFICANT WEATHER AND/OR OBSTRUCTIONS TO VISIBILITY NCZ015>017-031-032-045>047-102-103-020900- NORTH COAST CITY SKY/WX TMP DP RH WIND PRES REMARKS EDENTON NOT AVBL ELIZABETH CITY CLOUDY 76 72 87 S7 29.90F KITTY HAWK NOT AVBL MANTEO NOT AVBL $$ NCZ045>047-081-094-103-104-020900- CENTRAL COAST CITY SKY/WX TMP DP RH WIND PRES REMARKS FRISCO CLEAR 78 75 90 SW7 29.95S SWANQUARTER N/A 79 N/A N/A SW10 29.88S $$ NCZ095-097-098-100-101-020900- SOUTHERN COAST CITY SKY/WX TMP DP RH WIND PRES REMARKS BEAUFORT PTCLDY 79 76 90 SW9G20 29.95S CEDAR ISLAND N/A 77 N/A N/A S3G9 29.97S JACKSONVILLE PTCLDY 75 71 87 SW6 29.93F PINEY ISLAND SUNNY N/A N/A N/A S3 29.94F WILMINGTON CLEAR 78 72 81 SW8 29.94F $$ NCZ011>013-027>030-043-044-078>080-089-090>093-098-020900- COASTAL PLAIN CITY SKY/WX TMP DP RH WIND PRES REMARKS AHOSKIE CLOUDY 72 70 95 S3 29.90F FOG CLINTON NOT AVBL ELIZABETHTOWN NOT AVBL GOLDSBORO CLOUDY 76 72 87 S5 29.89F GREENVILLE CLOUDY 77 72 83 SW7 29.93F HAVELOCK CLEAR 75 71 87 SW6 29.95F KENANSVILLE NOT AVBL KINSTON NOT AVBL NEW BERN PTCLDY 74 71 91 SW6 29.94F RICHLANDS PTCLDY 72 66 83 S5 29.93F ROCKY MOUNT CLOUDY 76 71 85 S7 29.90F WASHINGTON NOT AVBL WHITEVILLE NOT AVBL $$ AMZ130-135-150-152-154-156-158-170-250-252-270-ANZ085-086-088-633-658-670-020900- MARINE OBSERVATIONS STATION/POSITION TIME TEMP WIND PRES WAVE SWELL AIR SEA DIR/SP/G HT/PER HT/PER (UTC) (F) (DEG/KT/KT) (MB) (FT/S) (FT/S) CHESAPEAKE LIGHT 0800 77 210/ 12/ 12 1012.8 64 E VA BEACH 0750 78 77 230/ 8/ 10 1012.5 5/ 8 5/ 8 DUCK 0800 78 65 230/ 10/ 13 1012.0 2 E DUCK 0711 68 N/A 2/ 8 OREGON INLET 0800 78 81 220/ 11/ 12 1013.2 13E OREGON INLT 0800 73 N/A 4/ 8 HATTERAS CG 0800 76 80 210/ 5/ 6 1013.5 DIAMOND BUOY 0750 80 82 230/ 14/ 16 1013.8 5/ 6 3/12 CAPE LOOKOUT 0800 79 230/ 10/ 13 1013.8 BEAUFORT LAB 0800 80 81 240/ 5/ 10 1013.3 30 SE NEW RVR IN 0708 80 80 240/ 16/ 19 1014.9 27 SE WRIGHTSVLE 0800 80 250/ 14/ 16 N/A 5 SE WRIGHTSVLE 0708 81 80 230/ 14/ 17 1014.2 225 S CAPE HAT 0750 81 80 220/ 17/ 21 1018.0 6/ 7 2/11 41 SE CHARLESTON 0750 81 82 240/ 14/ 16 1015.0 4/ 6 2/ 7 $$

USA.gov is the U.S. government's official web portal to all federal, state and local government web resources and services.